LiveATC.Net - Listen to live air traffic control over the Internet!


ICAO: KPVU  IATA: PVU   Airport: Provo Municipal Airport
City: Provo   State/Province: Utah
Country: United States   Continent: North America
KPVU METAR Weather: KPVU 171156Z AUTO 12005KT 10SM CLR M04/M08 A2984 RMK AO2 SLP127 T10441083 11017 21050 55005 FZRANO
KPVU Flight Activity (FlightAware)
KPVU Airport Info   (iFlightPlanner)
KPVU VFR Sectional Chart   (iFlightPlanner) 
KPVU IFR Low Chart   (iFlightPlanner) 

KPVU Tower
Feed Status: UP   Listeners: 0
Listen in your browser - HTML5 player (in browser, HTML5)
Click here to listen with your own player (launches your MP3 player)
KPVU Tower Audio Archives
FacilityFrequency
Provo Tower125.300

NOTICE

Unauthorized use prohibited. See LiveATC.net Terms of Service


Find LiveATC Audio Streams


Airport/ARTCC Code

Frequency Search
(e.g., 124.400, 128.75)
Site-wide search
 


Browse LiveATC Feeds
Top 50 LiveATC Feeds
LiveATC Feed Map
Bad Weather Areas

LiveATC FAQ
Offer LiveATC feed
Contact LiveATC.net
Press Inquiries

LiveATC on iPhone
LiveATC on Android

Windows Phone
Windows 8/10

LiveATC Mobile
(Mobile browser)

ATC Audio Archives
Interesting Recordings

LiveATC Forums


Home Page
About LiveATC.net
Make a Donation
Terms of Use
Privacy Policy

Canadian Air Freqs

AIRMETs/SIGMETs

FAA Airport Status
Nat'l Airspace Status
Arrival Demand Charts


Server Software By:
Icecast.org
Liquidsoap